Saint Simons Island, GA

1:13 PM EDT on September 25, 2017 (GMT -0400)
McKinnon

Weather History for KSSI - March, 2014

Change the Weather History Date:

Saturday, March 29, 2014

  Actual Average Record
Temperature  
Mean Temperature 70 °F 63 °F  
Max Temperature 77 °F 71 °F 85 °F (2012)
Min Temperature 63 °F 54 °F 34 °F (1955)
Degree Days  
Heating Degree Days 0 4  
Month to date heating degree days 217 171  
Since 1 July heating degree days 1445 1422  
Cooling Degree Days 5 1  
Month to date cooling degree days 14 28  
Year to date cooling degree days 22 37  
Growing Degree Days 20 (Base 50)    
Moisture  
Dew Point 64 °F    
Average Humidity 79    
Maximum Humidity 100    
Minimum Humidity 57    
Precipitation  
Precipitation 0.16 in 0.12 in 0.95 in (1970)
Month to date precipitation 2.54 3.64  
Year to date precipitation 9.02 10.33  
Snow  
Snow 0.00 in - 0.00 in ()
Month to date snowfall 0.0  
Since 1 July snowfall T  
Snow Depth 0.00 in    
Sea Level Pressure  
Sea Level Pressure 29.91 in    
Wind  
Wind Speed 9 mph (SSW)    
Max Wind Speed 20 mph    
Max Gust Speed 29 mph    
Visibility 7 miles    
Events Fog , Rain    
T = Trace of Precipitation, MM = Missing Value Source: NWS Daily Summary

Daily Weather History Graph

Daily Weather History Graph

Search for Another Location

Airport or City:

Trip Planner

Search our weather history database for the weather conditions in past years. The results will help you decide how hot, cold, wet, or windy it might be!

Date:

Astronomy

Mar. 29, 2014 Rise Set
Actual Time 7:18 AM EDT 7:42 PM EDT
Civil Twilight 6:53 AM EDT 8:07 PM EDT
Nautical Twilight 6:25 AM EDT 8:35 PM EDT
Astronomical Twilight 5:56 AM EDT 9:04 PM EDT
Moon 6:21 AM EDT (3/29) 6:48 PM EDT (3/29)
Length of Visible Light 13h 13m
Length of Day
12h 24m
Waning Crescent, 2% of the Moon is Illuminated
Mar 29
Waning Crescent
Mar 30
New
Apr 7
First Quarter
Apr 15
Full
Apr 22
Last Quarter

Hourly Weather History & Observations

Time (EDT) Temp. Dew Point Humidity Pressure Visibility Wind Dir Wind Speed Gust Speed Precip Events Conditions
12:53 AM 64.0 °F 63.0 °F 96% 30.03 in 6.0 mi SSE 6.9 mph - 0.04 in Rain Light Rain
1:53 AM 64.0 °F 63.0 °F 96% 29.99 in 7.0 mi SSE 11.5 mph 17.3 mph 0.02 in Rain Light Rain
2:53 AM 64.0 °F 63.0 °F 96% 30.00 in 8.0 mi South 9.2 mph 17.3 mph 0.00 in   Overcast
3:04 AM 64.0 °F 63.0 °F 96% 29.99 in 7.0 mi South 10.4 mph - 0.00 in Rain Light Rain
3:29 AM 64.0 °F 63.0 °F 96% 29.98 in 6.0 mi South 9.2 mph - 0.00 in   Overcast
3:53 AM 64.0 °F 63.0 °F 96% 29.96 in 6.0 mi South 11.5 mph 21.9 mph 0.00 in   Overcast
4:01 AM 64.0 °F 63.0 °F 96% 29.96 in 7.0 mi South 13.8 mph 21.9 mph N/A   Overcast
4:18 AM 64.9 °F 63.0 °F 93% 29.92 in 9.0 mi SSE 12.7 mph 21.9 mph N/A   Mostly Cloudy
4:46 AM 64.9 °F 63.0 °F 93% 29.89 in 9.0 mi SSE 10.4 mph - N/A   Mostly Cloudy
4:53 AM 64.9 °F 63.0 °F 93% 29.91 in 10.0 mi Variable 6.9 mph - N/A   Mostly Cloudy
5:00 AM 64.9 °F 63.0 °F 93% 29.91 in 10.0 mi South 6.9 mph - N/A   Overcast
5:40 AM 66.0 °F 64.0 °F 93% 29.93 in 10.0 mi South 5.8 mph - N/A   Overcast
5:48 AM 66.2 °F 64.4 °F 94% 29.93 in 10.0 mi SSW 8.1 mph - N/A   Overcast
5:53 AM 66.0 °F 64.0 °F 93% 29.94 in 10.0 mi SSW 5.8 mph - N/A   Overcast
6:02 AM 66.0 °F 64.0 °F 93% 29.94 in 10.0 mi SSW 8.1 mph - N/A   Overcast
6:09 AM 66.0 °F 64.0 °F 93% 29.94 in 7.0 mi SSW 6.9 mph - 0.01 in Rain Light Rain
6:35 AM 64.9 °F 64.0 °F 97% 29.94 in 4.0 mi South 5.8 mph - 0.04 in Rain Light Rain
6:51 AM 64.4 °F 64.4 °F 100% 29.96 in 2.5 mi SSE 5.8 mph - 0.07 in Rain Light Rain
6:53 AM 64.9 °F 64.0 °F 97% 29.96 in 3.0 mi South 5.8 mph - 0.07 in Rain Light Rain
7:37 AM 64.9 °F 64.0 °F 97% 29.99 in 3.0 mi Calm Calm - 0.02 in   Overcast
7:51 AM 66.2 °F 64.4 °F 94% 29.99 in 2.5 mi Calm Calm - 0.02 in Rain Light Rain
7:53 AM 66.0 °F 64.0 °F 93% 29.99 in 2.5 mi Calm Calm - 0.02 in Rain Light Rain
8:06 AM 64.9 °F 64.0 °F 97% 29.99 in 3.0 mi Calm Calm - 0.00 in   Overcast
8:16 AM 64.9 °F 64.9 °F 100% 29.99 in 2.5 mi Calm Calm - 0.00 in   Overcast
8:26 AM 66.0 °F 64.9 °F 96% 29.98 in 4.0 mi Calm Calm - 0.00 in   Overcast
8:53 AM 66.9 °F 64.9 °F 93% 29.99 in 6.0 mi Calm Calm - 0.00 in   Overcast
9:12 AM 66.9 °F 64.9 °F 93% 29.99 in 4.0 mi South 3.5 mph - 0.00 in Rain Light Rain
9:46 AM 66.9 °F 66.0 °F 97% 29.98 in 6.0 mi South 4.6 mph - 0.00 in   Overcast
9:53 AM 66.9 °F 64.9 °F 93% 29.98 in 5.0 mi South 4.6 mph - 0.00 in   Overcast
10:20 AM 68.0 °F 66.0 °F 93% 29.94 in 8.0 mi SE 3.5 mph - N/A   Overcast
10:53 AM 66.0 °F 64.9 °F 96% 29.95 in 5.0 mi South 5.8 mph - N/A   Overcast
11:04 AM 66.0 °F 64.0 °F 93% 29.95 in 4.0 mi South 6.9 mph - N/A   Overcast
11:22 AM 64.9 °F 64.0 °F 97% 29.95 in 4.0 mi South 6.9 mph - N/A   Overcast
11:53 AM 66.0 °F 64.9 °F 96% 29.92 in 4.0 mi SSE 10.4 mph 16.1 mph 0.02 in Rain Light Rain
12:10 PM 64.9 °F 64.0 °F 97% 29.89 in 2.0 mi SSE 8.1 mph - 0.03 in Rain Rain
12:27 PM 64.9 °F 64.9 °F 100% 29.88 in 4.0 mi South 8.1 mph - 0.03 in Rain Light Rain
12:36 PM 64.9 °F 64.0 °F 97% 29.87 in 1.8 mi South 8.1 mph - 0.03 in   Overcast
12:53 PM 64.0 °F 64.0 °F 100% 29.88 in 1.0 mi South 8.1 mph - 0.03 in   Overcast
1:21 PM 64.0 °F 63.0 °F 96% 29.88 in 0.5 mi South 9.2 mph - N/A Fog Fog
1:31 PM 66.0 °F 64.9 °F 96% 29.88 in 2.5 mi South 5.8 mph - N/A   Overcast
1:38 PM 66.0 °F 66.0 °F 100% 29.87 in 6.0 mi South 5.8 mph - N/A   Overcast
1:50 PM 66.2 °F 66.2 °F 100% 29.86 in 9.0 mi SSW 6.9 mph - N/A   Overcast
1:53 PM 66.9 °F 66.0 °F 97% 29.86 in 9.0 mi SSW 10.4 mph 17.3 mph N/A   Overcast
2:11 PM 68.0 °F 66.0 °F 93% 29.85 in 10.0 mi SW 11.5 mph - N/A   Overcast
2:42 PM 69.1 °F 66.0 °F 90% 29.83 in 10.0 mi SSW 11.5 mph - N/A   Mostly Cloudy
2:53 PM 68.0 °F 66.0 °F 93% 29.83 in 10.0 mi SSW 11.5 mph - N/A   Mostly Cloudy
3:23 PM 69.1 °F 66.9 °F 93% 29.81 in 10.0 mi SW 13.8 mph 23.0 mph N/A   Mostly Cloudy
3:38 PM 70.0 °F 66.9 °F 90% 29.80 in 10.0 mi SW 13.8 mph - N/A   Scattered Clouds
3:53 PM 71.1 °F 66.0 °F 84% 29.80 in 10.0 mi SW 15.0 mph 23.0 mph N/A   Partly Cloudy
4:53 PM 75.0 °F 64.9 °F 71% 29.78 in 10.0 mi WSW 15.0 mph - N/A   Mostly Cloudy
5:53 PM 77.0 °F 64.0 °F 64% 29.78 in 10.0 mi WSW 13.8 mph - 0.00 in   Partly Cloudy
6:53 PM 75.0 °F 61.0 °F 62% 29.78 in 10.0 mi SW 15.0 mph - N/A   Partly Cloudy
7:53 PM 72.0 °F 61.0 °F 68% 29.80 in 10.0 mi WSW 10.4 mph - N/A   Mostly Cloudy
8:53 PM 71.1 °F 55.9 °F 59% 29.82 in 10.0 mi West 8.1 mph 21.9 mph N/A   Clear
9:53 PM 68.0 °F 53.1 °F 59% 29.84 in 10.0 mi WSW 8.1 mph - N/A   Clear
10:53 PM 66.0 °F 54.0 °F 65% 29.86 in 10.0 mi West 9.2 mph - N/A   Clear
11:53 PM 66.0 °F 54.0 °F 65% 29.87 in 10.0 mi WNW 11.5 mph 21.9 mph N/A   Clear